Flag for Austria Weather past 2 weeks in Lustenau, Vorarlberg, Austria

Now
36 °F

Mostly cloudy.


Feels Like: 27 °F
Forecast: 25 / 38 °F
Wind: 13 mph from West

Location: Saint Gallen-Altenrhein

Current Time: Feb 1, 2015 at 8:53:29 PM

Latest Report: Feb 1, 2015 at 8:20 PM


Visibility: N/A

Pressure: 29.47 "Hg

Humidity: 70%

Dew point: 27 °F

Location of LustenauLocation

Historic Weather in Lustenau — Graph

°F

Lustenau temperature yesterday

Maximum temperature yesterday: 39 °F (at 11:20 AM)
Minimum temperature yesterday: 32 °F (at 8:20 AM)
Average temperature yesterday: 36 °F

Past Weeks' High & Low Weather Summary

 TemperatureHumidityPressure
High45 °F (Jan 29, 10:20 PM)100% (Jan 17, 7:20 PM)30.39 "Hg (Jan 17, 7:20 PM)
Low27 °F (Jan 19, 4:20 AM)46% (Jan 29, 10:20 PM)28.80 "Hg (Jan 30, 1:20 AM)
Average34 °F84%29.82 "Hg
* Reported Jan 17 7:20 PM — Feb 1 7:20 PM, Lustenau, Weather by CustomWeather, © 2014

Note: Actual official high and low records may vary slightly from our data, if they occured in-between our weather recording intervals... More about our weather records

Advertising

Lustenau weather history for previous 24 hours

 ConditionsComfort  
Time TempWeatherWind HumidityBarometerVisibility
7:20 PM
Feb 1
36 °FPassing clouds.12 mph75%29.45 "HgN/A
6:50 PM36 °FPassing clouds.10 mph75%29.45 "HgN/A
6:20 PM36 °FLight snow. Passing clouds.12 mph75%29.42 "HgN/A
5:50 PM34 °FSnow flurries. Overcast.12 mph87%29.42 "Hg3 mi
5:20 PM34 °FSnow flurries. Overcast.10 mph81%29.39 "Hg3 mi
4:50 PM36 °FLight snow. More clouds than sun.8 mph75%29.39 "Hg4 mi
4:20 PM34 °FLight snow. More clouds than sun.3 mph87%29.36 "Hg4 mi
3:50 PM32 °FLight snow. Overcast.3 mph93%29.36 "Hg2 mi
3:20 PM32 °FLight snow. Overcast.1 mph93%29.36 "Hg2 mi
2:50 PM32 °FLight snow. Broken clouds.8 mph93%29.36 "Hg2 mi
2:20 PM34 °FLight snow. Broken clouds.12 mph75%29.36 "Hg2 mi
1:50 PM37 °FPartly sunny.8 mph56%29.33 "HgN/A
1:20 PM36 °FBroken clouds.7 mph60%29.33 "HgN/A
12:50 PM37 °FBroken clouds.10 mph60%29.33 "HgN/A
12:20 PM36 °FBroken clouds.9 mph65%29.33 "HgN/A
11:50 AM36 °FBroken clouds.12 mph60%29.33 "HgN/A
11:20 AM34 °FBroken clouds.3 mph81%29.33 "HgN/A
10:50 AM36 °FScattered clouds.3 mph70%29.30 "HgN/A
10:20 AM34 °FScattered clouds.8 mph81%29.30 "HgN/A
9:50 AM34 °FScattered clouds.6 mph75%29.30 "HgN/A
9:20 AM34 °FOvercast.8 mph75%29.27 "HgN/A
8:50 AM32 °FSnow flurries. More clouds than sun.8 mph87%29.27 "HgN/A
8:20 AM32 °FLight snow. Partly sunny.6 mph93%29.27 "Hg2 mi
7:50 AM32 °FSnow flurries. Broken clouds.5 mph93%29.27 "Hg1 mi
7:20 AM32 °FSnow flurries. Partly cloudy.3 mph87%29.24 "HgN/A
6:50 AM32 °FSnow flurries. Partly cloudy.1 mph93%29.24 "HgN/A
6:20 AM32 °FSnow showers. Passing clouds.9 mph93%29.21 "Hg1 mi
5:50 AM36 °FPassing clouds.6 mph60%29.21 "HgN/A
5:20 AM34 °FPartly cloudy.8 mph65%29.18 "HgN/A
4:50 AM32 °FChilly.2 mph80%29.18 "HgN/A
4:20 AM34 °FPassing clouds.2 mph70%29.18 "HgN/A
3:50 AM36 °FMostly cloudy.3 mph70%29.21 "HgN/A
3:20 AM32 °FPartly cloudy.2 mph87%29.21 "HgN/A
2:50 AM32 °FOvercast.2 mph93%29.21 "HgN/A
2:20 AM32 °FPartly cloudy.1 mph93%29.21 "HgN/A
1:50 AM32 °FClear.2 mph87%29.21 "HgN/A
1:20 AM34 °FPartly cloudy.2 mph87%29.21 "HgN/A
12:50 AM36 °FOvercast.6 mph81%29.21 "HgN/A
12:20 AM34 °FOvercast.1 mph87%29.21 "HgN/A
11:50 PM
Jan 31
34 °FOvercast.5 mph87%29.21 "HgN/A
11:20 PM34 °FOvercast.2 mph87%29.18 "HgN/A
10:50 PM34 °FOvercast.5 mph87%29.18 "HgN/A
10:20 PM34 °FMostly cloudy.3 mph87%29.18 "HgN/A
9:50 PM34 °FOvercast.5 mph87%29.18 "HgN/A
9:20 PM34 °FMostly cloudy.5 mph87%29.18 "HgN/A
8:50 PM34 °FSnow flurries. Partly cloudy.5 mph87%29.18 "HgN/A
8:20 PM36 °FPassing clouds.2 mph81%29.18 "HgN/A
Weather by CustomWeather, © 2014

See weather overviewHow to use our weather pages